TimeMST,TemperatureF,Dew PointF,Humidity,Sea Level PressureIn,VisibilityMPH,Wind Direction,Wind SpeedMPH,Gust SpeedMPH,PrecipitationIn,Events,Conditions,WindDirDegrees,DateUTC
12:53 AM,34.0,17.1,50,30.30,10.0,East,8.1,-,N/A,,Clear,80,2013-01-18 07:53:00
1:53 AM,28.9,15.1,56,30.32,10.0,East,6.9,-,N/A,,Clear,80,2013-01-18 08:53:00
2:53 AM,32.0,17.1,54,30.30,10.0,East,6.9,-,N/A,,Clear,90,2013-01-18 09:53:00
3:53 AM,28.9,15.1,56,30.29,10.0,ESE,3.5,-,N/A,,Clear,110,2013-01-18 10:53:00
4:53 AM,25.0,12.9,60,30.29,10.0,East,8.1,-,N/A,,Clear,100,2013-01-18 11:53:00
5:53 AM,24.1,12.9,62,30.32,10.0,East,6.9,-,N/A,,Clear,100,2013-01-18 12:53:00
6:53 AM,23.0,12.9,65,30.34,10.0,East,6.9,-,N/A,,Clear,90,2013-01-18 13:53:00
7:53 AM,28.9,15.1,56,30.34,10.0,ENE,8.1,-,N/A,,Clear,70,2013-01-18 14:53:00
8:53 AM,39.9,19.9,45,30.34,10.0,East,5.8,-,N/A,,Clear,80,2013-01-18 15:53:00
9:53 AM,46.0,19.9,35,30.34,10.0,East,8.1,-,N/A,,Clear,80,2013-01-18 16:53:00
10:53 AM,48.9,19.9,32,30.32,10.0,East,9.2,-,N/A,,Clear,80,2013-01-18 17:53:00
11:53 AM,51.1,19.9,29,30.27,10.0,East,8.1,-,N/A,,Clear,80,2013-01-18 18:53:00
12:53 PM,53.1,19.0,26,30.22,10.0,ESE,6.9,-,N/A,,Clear,120,2013-01-18 19:53:00
1:53 PM,55.0,17.1,23,30.20,10.0,Calm,Calm,-,N/A,,Clear,0,2013-01-18 20:53:00
2:53 PM,57.0,17.1,21,30.17,10.0,Calm,Calm,-,N/A,,Clear,0,2013-01-18 21:53:00
3:53 PM,57.0,18.0,22,30.17,10.0,Calm,Calm,-,N/A,,Clear,0,2013-01-18 22:53:00
4:53 PM,55.9,17.1,22,30.18,10.0,Calm,Calm,-,N/A,,Clear,0,2013-01-18 23:53:00
5:53 PM,48.9,16.0,27,30.21,10.0,ENE,3.5,-,N/A,,Clear,70,2013-01-19 00:53:00
6:53 PM,43.0,16.0,34,30.24,10.0,SSE,4.6,-,N/A,,Clear,160,2013-01-19 01:53:00
7:53 PM,39.9,17.1,40,30.23,10.0,SW,3.5,-,N/A,,Clear,230,2013-01-19 02:53:00
8:53 PM,35.1,12.9,40,30.22,10.0,NW,6.9,-,N/A,,Clear,320,2013-01-19 03:53:00
9:53 PM,32.0,10.9,42,30.23,10.0,Calm,Calm,-,N/A,,Clear,0,2013-01-19 04:53:00
10:53 PM,28.9,10.9,47,30.22,10.0,NW,4.6,-,N/A,,Clear,310,2013-01-19 05:53:00
11:53 PM,26.1,10.0,51,30.22,10.0,WNW,4.6,-,N/A,,Clear,300,2013-01-19 06:53:00